(618692) = 2014 DY17 = 2003 CM25

Discovered at Palomar on 2003-02-02 by NEAT.

Orbit

Orbit type: Mars-crosser

Note: WebGL enabled browser required.

epoch2022-08-09.0
epoch JD2459800.5
perihelion date2021-09-06.37718
perihelion JD2459463.87718
argument of perihelion (°)204.30376
ascending node (°)11.76249
inclination (°)8.29371
eccentricity0.3900116
perihelion distance (AU)1.4458904
Tisserand w.r.t. Jupiter3.4
ΔV w.r.t. Earth (km/sec)7.8
semimajor axis (AU)2.3703572
mean anomaly (°)90.91315
mean daily motion (°/day)0.27007420
aphelion distance (AU)3.295
period (years)3.65
P-vector [x]-0.80921423
P-vector [y]-0.51265864
P-vector [z]-0.28697289
Q-vector [x]0.58677733
Q-vector [y]-0.68077981
Q-vector [z]-0.43844181
absolute magnitude17.93
phase slope0.15
uncertainty0
referenceMPO 723637
observations used176
oppositions6
arc length (days)7171
first opposition used2003
last opposition used2022
residual rms (arc-secs)0.71
perturbers coarse indicatorM-v
perturbers precise indicator003El
first observation date used2003-02-02.0
last observation date used2022-09-21.0
computer nameMPCLINUX

Observations

179 total observations over interval: 2003 02 02.41471 – 2022 09 21.436780
These data are available for download (format description).

Date (UT) J2000 RA J2000 Dec Magn Location Ref
2003 02 02.41471 10 01 32.16 +27 20 47.8 20.9   644 – Palomar Mountain/NEAT MPS 182589
2003 02 02.43574 10 01 30.79 +27 20 53.8 20.5   644 – Palomar Mountain/NEAT MPS 182589
2003 02 02.45657 10 01 29.40 +27 21 00.1 20.2   644 – Palomar Mountain/NEAT MPS 182589
2003 02 08.23108 09 55 04.44 +27 47 55.4 19.1 R 699 – Lowell Observatory-LONEOS MPS 182589
2003 02 08.25314 09 55 02.72 +27 48 00.8   699 – Lowell Observatory-LONEOS MPS 182589
2003 02 08.27526 09 55 01.03 +27 48 07.1   699 – Lowell Observatory-LONEOS MPS 182589
2003 02 08.29743 09 54 59.38 +27 48 11.8   699 – Lowell Observatory-LONEOS MPS 182589
2003 02 19.34635 09 40 39.55 +28 17 41.9 19.4   644 – Palomar Mountain/NEAT MPS 182589
2003 02 19.36773 09 40 37.76 +28 17 42.7 19.5   644 – Palomar Mountain/NEAT MPS 182589
2003 02 19.38903 09 40 35.93 +28 17 43.8 19.2   644 – Palomar Mountain/NEAT MPS 182589
2003 02 26.27275 09 31 27.52 +28 15 39.5 19.2   704 – Lincoln Laboratory ETS, New Mexico MPS 182589
2003 02 26.28628 09 31 26.38 +28 15 40.2 20.0   704 – Lincoln Laboratory ETS, New Mexico MPS 182589
2003 02 26.29881 09 31 25.34 +28 15 37.0 19.5   704 – Lincoln Laboratory ETS, New Mexico MPS 182589
2003 02 26.31200 09 31 24.32 +28 15 35.2 19.5   704 – Lincoln Laboratory ETS, New Mexico MPS 182589
2003 02 26.32540 09 31 23.22 +28 15 35.5 19.8   704 – Lincoln Laboratory ETS, New Mexico MPS 182589
2003 03 03.18290 09 25 24.41 +28 03 08.6 19.4   644 – Palomar Mountain/NEAT MPS 182589
2003 03 03.19347 09 25 23.64 +28 03 06.6 19.5   644 – Palomar Mountain/NEAT MPS 182589
2003 03 03.20410 09 25 22.87 +28 03 04.2 19.6   644 – Palomar Mountain/NEAT MPS 182589
2003 03 26.18431 09 09 44.97 +25 10 54.0 19.4   704 – Lincoln Laboratory ETS, New Mexico MPS 182590
2003 03 26.19596 09 09 44.88 +25 10 45.7 19.8   704 – Lincoln Laboratory ETS, New Mexico MPS 182590
2003 03 26.20761 09 09 44.76 +25 10 38.5 20.2   704 – Lincoln Laboratory ETS, New Mexico MPS 182590
2003 03 26.21928 09 09 44.64 +25 10 31.0 19.1   704 – Lincoln Laboratory ETS, New Mexico MPS 182590
2003 03 26.23113 09 09 44.43 +25 10 22.7 20.0   704 – Lincoln Laboratory ETS, New Mexico MPS 182590
2014 02 24.22130 11 48 49.69 +12 15 38.0 18.2 R G32 – Elena Remote Observatory, San Pedro de Atacama MPS 502511
2014 02 24.22574 11 48 49.50 +12 15 37.5 18.0 R G32 – Elena Remote Observatory, San Pedro de Atacama MPS 502511
2014 02 24.23009 11 48 49.35 +12 15 37.1 18.1 R G32 – Elena Remote Observatory, San Pedro de Atacama MPS 502511
2014 02 24.23473 11 48 49.15 +12 15 36.5 18.1 R G32 – Elena Remote Observatory, San Pedro de Atacama MPS 502511
2014 02 24.23935 11 48 48.98 +12 15 36.0 18.0 R G32 – Elena Remote Observatory, San Pedro de Atacama MPS 502511
2014 02 25.20531 11 48 15.45 +12 13 40.2 18.1 R G32 – Elena Remote Observatory, San Pedro de Atacama MPS 502511
2014 02 25.20956 11 48 15.28 +12 13 39.7 17.9 R G32 – Elena Remote Observatory, San Pedro de Atacama MPS 502511
2014 02 25.21387 11 48 15.10 +12 13 39.2 18.1 R G32 – Elena Remote Observatory, San Pedro de Atacama MPS 502511
2014 02 25.21816 11 48 14.93 +12 13 38.6 18.0 R G32 – Elena Remote Observatory, San Pedro de Atacama MPS 502511
2014 02 25.22244 11 48 14.75 +12 13 38.0 18.2 R G32 – Elena Remote Observatory, San Pedro de Atacama MPS 502511
2014 02 25.43218 11 48 06.68 +12 12 57.8 18.3   718 – Tooele MPS 502511
2014 02 25.43784 11 48 06.48 +12 12 57.4 18.3   718 – Tooele MPS 502511
2014 02 25.45170 11 48 05.95 +12 12 55.1 18.4   718 – Tooele MPS 502511
2014 02 25.87373 11 47 51.06 +12 12 00.7 19.1 R 246 – Klet Observatory-KLENOT MPS 502511
2014 02 25.87403 11 47 51.05 +12 12 00.3   246 – Klet Observatory-KLENOT MPS 502511
2014 02 25.87449 11 47 51.07 +12 12 00.4   246 – Klet Observatory-KLENOT MPS 502511
2014 02 25.87584 11 47 50.99 +12 12 00.3   246 – Klet Observatory-KLENOT MPS 502511
2014 02 25.87612 11 47 50.99 +12 12 00.1   246 – Klet Observatory-KLENOT MPS 502511
2014 02 25.87698 11 47 50.96 +12 12 00.1   246 – Klet Observatory-KLENOT MPS 502511
2014 02 25.87728 11 47 50.92 +12 12 00.5   246 – Klet Observatory-KLENOT MPS 502511
2014 02 25.87756 11 47 50.92 +12 12 00.3   246 – Klet Observatory-KLENOT MPS 502511
2014 02 25.87891 11 47 50.85 +12 12 00.1   246 – Klet Observatory-KLENOT MPS 502511
2014 02 25.88798 11 47 50.48 +12 11 58.6 18.4 R 113 – Volkssternwarte Drebach, Schoenbrunn MPS 502511
2014 02 25.89154 11 47 50.32 +12 11 57.9 18.5 R 113 – Volkssternwarte Drebach, Schoenbrunn MPS 502511
2014 02 25.89510 11 47 50.20 +12 11 57.5 18.3 R 113 – Volkssternwarte Drebach, Schoenbrunn MPS 502511
2014 02 25.89867 11 47 50.05 +12 11 57.1 18.2 R 113 – Volkssternwarte Drebach, Schoenbrunn MPS 502511
2014 02 25.93803 11 47 48.46 +12 11 52.4 18.9 V C43 – Hoyerswerda MPS 502511
2014 02 25.94561 11 47 48.17 +12 11 51.7 19.1 V C43 – Hoyerswerda MPS 502511
2014 02 26.25505 11 47 36.06 +12 11 28.3 18.1 R G32 – Elena Remote Observatory, San Pedro de Atacama MPS 502511
2014 02 26.25815 11 47 35.92 +12 11 27.8 18.2 R G32 – Elena Remote Observatory, San Pedro de Atacama MPS 502511
2014 02 26.26138 11 47 35.78 +12 11 27.5 18.2 R G32 – Elena Remote Observatory, San Pedro de Atacama MPS 502511
2014 02 26.33093 11 47 32.77 +12 11 18.2 18.1 R G32 – Elena Remote Observatory, San Pedro de Atacama MPS 502511
2014 02 26.33485 11 47 32.57 +12 11 17.6 18.1 R G32 – Elena Remote Observatory, San Pedro de Atacama MPS 502511
2014 02 26.33878 11 47 32.41 +12 11 17.1 18.2 R G32 – Elena Remote Observatory, San Pedro de Atacama MPS 502511
2014 02 26.36585 11 47 31.82 +12 11 01.5 18.2 V G96 – Mt. Lemmon Survey MPS 502511
2014 02 26.37096 11 47 31.59 +12 11 00.9 18.2 V G96 – Mt. Lemmon Survey MPS 502511
2014 02 26.37604 11 47 31.38 +12 11 00.2 18.2 V G96 – Mt. Lemmon Survey MPS 502511
2014 02 26.38109 11 47 31.15 +12 10 59.6 18.3 V G96 – Mt. Lemmon Survey MPS 502511
2014 02 26.43924 11 47 28.61 +12 10 50.2 18.8   718 – Tooele MPS 502511
2014 02 26.44491 11 47 28.41 +12 10 49.6 18.5   718 – Tooele MPS 502511
2014 02 26.45055 11 47 28.13 +12 10 49.0 18.8   718 – Tooele MPS 502511
2014 02 26.45364 11 47 28.04 +12 10 48.4 19.0   718 – Tooele MPS 502511
2014 02 27.23707 11 46 57.28 +12 09 18.7 18.1 R G32 – Elena Remote Observatory, San Pedro de Atacama MPS 502512
2014 02 27.24030 11 46 57.13 +12 09 18.2 17.9 R G32 – Elena Remote Observatory, San Pedro de Atacama MPS 502512
2014 02 27.24324 11 46 57.00 +12 09 18.0 17.9 R G32 – Elena Remote Observatory, San Pedro de Atacama MPS 502512
2014 02 27.24815 11 46 56.77 +12 09 17.2 17.9 R G32 – Elena Remote Observatory, San Pedro de Atacama MPS 502512
2014 02 27.25111 11 46 56.63 +12 09 16.8 18.1 R G32 – Elena Remote Observatory, San Pedro de Atacama MPS 502512
2014 02 28.34928 11 46 10.12 +12 06 43.2 18.2 R G32 – Elena Remote Observatory, San Pedro de Atacama MPS 504122
2014 02 28.35373 11 46 09.92 +12 06 42.3 18.1 R G32 – Elena Remote Observatory, San Pedro de Atacama MPS 504122
2014 02 28.36617 11 46 09.33 +12 06 40.5 18.0 R G32 – Elena Remote Observatory, San Pedro de Atacama MPS 504122
2014 02 28.37079 11 46 09.11 +12 06 39.9 18.1 R G32 – Elena Remote Observatory, San Pedro de Atacama MPS 504122
2014 02 28.37523 11 46 08.90 +12 06 39.2 18.0 R G32 – Elena Remote Observatory, San Pedro de Atacama MPS 504122
2014 02 28.37985 11 46 08.68 +12 06 38.3 18.0 R G32 – Elena Remote Observatory, San Pedro de Atacama MPS 504122
2014 02 28.38447 11 46 08.46 +12 06 37.6 18.0 R G32 – Elena Remote Observatory, San Pedro de Atacama MPS 504122
2014 03 05.24172 11 42 16.35 +11 53 00.3 18.1 V 703 – Catalina Sky Survey MPS 504122
2014 03 05.24571 11 42 16.14 +11 52 59.8 18.2 V 703 – Catalina Sky Survey MPS 504122
2014 03 05.24972 11 42 15.96 +11 52 59.8 18.2 V 703 – Catalina Sky Survey MPS 504122
2014 03 05.25295 11 42 15.72 +11 52 58.2   691 – Steward Observatory, Kitt Peak-Spacewatch MPS 504122
2014 03 05.25372 11 42 15.65 +11 52 57.6 18.1 V 703 – Catalina Sky Survey MPS 504122
2014 03 05.27069 11 42 14.70 +11 52 55.0   691 – Steward Observatory, Kitt Peak-Spacewatch MPS 504122
2014 03 05.28841 11 42 13.67 +11 52 51.7   691 – Steward Observatory, Kitt Peak-Spacewatch MPS 504122
2014 03 09.25417 11 38 32.97 +11 38 38.0   691 – Steward Observatory, Kitt Peak-Spacewatch MPS 505463
2014 03 09.27189 11 38 31.84 +11 38 34.1   691 – Steward Observatory, Kitt Peak-Spacewatch MPS 505463
2014 03 09.28961 11 38 30.72 +11 38 29.8   691 – Steward Observatory, Kitt Peak-Spacewatch MPS 505463
2014 03 10.24163 11 37 34.72 +11 34 33.1 17.8 V G96 – Mt. Lemmon Survey MPS 505463
2014 03 10.24994 11 37 34.18 +11 34 31.3 17.8 V G96 – Mt. Lemmon Survey MPS 505463
2014 03 10.25826 11 37 33.65 +11 34 29.1 17.7 V G96 – Mt. Lemmon Survey MPS 505463
